Location: Newark
(12.5331°N, 56.4669°W)
Time: 21:06:33
(UTC+00:00)

Envisat - Pass Details

Date: 28 January 2020
Orbit: 764 x 766 km, 98.1° (Epoch: 23 February)

Event Time Altitude Azimuth Distance (km) Brightness Sun altitude
Rises 09:29:50 0° 29° (NNE) 3,217 6.4 -10.6°
Reaches altitude 10° 09:32:25 10° 40° (NE) 2,291 5.8 -10.0°
Maximum altitude 09:36:46 29° 100° (E) 1,356 5.3 -9.0°
Drops below altitude 10° 09:41:08 10° 160° (SSE) 2,290 6.0 -8.0°
Sets 09:43:41 0° 171° (S) 3,215 6.6 -7.4°
